Dewpoint
13 5 14 10 10 10 11 11 12 12 13 12 13 13 12 12 10 2 -0 3 11 12 12 9 8 7 9 11 10 10 8 7 4 -2 -3 -2 -2 -1 -3 6 12 11 12
12 6 13 13 11 11 12 13 13 13 13 13 13 14 11 9 2 6 0 13 12 5 7 4 -3 -3 4 9 9 7 6 6 4 0 4 5 4 -1 -4 -0 8 10 10
12 8 13 14 12 12 12 12 13 13 12 12 11 10 8 0 9 -1 8 12 13 10 10 8 -6 -1 3 5 5 5 6 6 8 8 9 11 9 9 4 -1 -2 2 2
12 9 14 14 14 11 13 13 13 12 7 3 5 5 -1 10 12 7 10 12 13 12 10 7 -8 -2 2 1 3 5 7 8 10 9 8 10 11 11 10 10 10 11 11
9 9 15 15 14 12 13 13 12 11 9 1 -2 -6 -6 11 12 12 10 13 13 12 10 3 -7 -7 -6 -4 0 7 9 10 9 10 10 8 10 11 12 11 10 12 12
8 10 15 14 12 12 12 12 12 11 11 0 -11 -13 -6 10 11 10 10 11 12 9 9 -3 -3 -0 1 2 4 8 9 9 9 8 6 4 9 11 12 12 12 12 11
8 10 14 15 11 11 11 11 12 11 6 0 -11 -13 -13 -9 1 4 7 8 6 6 3 -4 -2 0 1 2 4 6 7 9 8 8 6 3 1 5 9 10 10 10 11
11 11 11 11 12 12 11 11 10 8 4 1 -8 -11 -12 -12 -8 -2 0 4 4 0 -4 -2 -1 0 1 1 3 5 7 8 7 6 5 4 10 8 6 5 4 2 1
13 13 10 14 14 13 11 11 11 12 3 -1 -6 -8 -10 -11 -10 -7 -3 1 0 -4 -3 -1 0 0 0 1 2 5 7 7 6 4 3 3 10 7 3 -0 -3 -8 -8
14 14 14 12 14 14 12 11 13 13 7 -2 -6 -9 -8 -8 -8 -3 -0 1 -1 -4 -2 -1 -0 -0 0 1 1 2 4 5 4 1 2 1 7 2 -1 -4 -9 -13 -14
14 13 12 13 13 14 12 13 13 11 4 2 -1 -4 -8 -7 -7 -4 -2 -2 -3 -3 -0 1 1 1 1 1 1 1 2 1 -1 0 2 5 4 4 1 -5 -11 -15 -18
14 13 13 10 7 8 10 11 11 8 4 2 0 2 -3 -6 -5 -5 -5 -4 -4 -2 -0 1 2 2 2 2 3 2 2 2 0 -0 1 4 4 3 -3 -6 -13 -16 -17
13 14 13 12 10 8 5 5 4 2 1 0 1 3 4 -2 -4 -4 -3 -3 -2 -2 -1 1 2 2 3 3 3 4 4 3 2 1 1 1 2 2 -3 -9 -14 -15 -15
14 14 13 13 13 12 11 7 6 5 2 -1 -0 3 6 5 2 2 3 4 5 2 -1 -0 1 4 4 3 4 4 4 4 4 2 2 2 3 2 2 -6 -12 -15 -15
14 14 13 13 13 13 12 11 9 8 5 4 3 8 10 9 8 7 7 8 9 8 5 0 1 2 5 4 3 3 3 4 4 3 2 3 3 3 3 0 -9 -13 -15
14 14 14 13 13 13 13 12 11 11 10 10 10 10 10 11 11 11 11 10 9 9 10 10 7 6 6 6 6 5 4 4 4 3 3 3 4 4 3 2 -4 -11 -12
10 12 14 13 13 12 13 12 12 12 12 12 12 12 12 11 11 11 11 11 11 10 10 10 10 9 9 9 9 9 7 4 3 3 3 3 4 4 4 3 -1 -8 -11
10 12 12 13 13 13 13 12 12 12 12 11 12 12 12 12 12 11 11 10 10 10 10 11 10 11 11 10 10 10 9 6 3 3 3 3 4 4 4 3 1 -3 -9
0 6 10 11 12 12 13 13 13 13 12 12 12 12 12 12 11 12 11 11 11 10 10 10 10 11 11 11 10 11 10 9 6 3 3 3 4 4 4 4 3 0 -5
-2 1 4 7 10 12 12 13 13 13 12 13 13 13 13 12 12 12 12 11 12 12 11 11 10 11 11 11 11 11 11 10 9 7 4 3 4 4 4 5 4 2 -2
-3 -4 2 2 3 3 4 4 6 10 10 11 11 11 11 10 11 12 11 11 10 12 10 11 11 11 11 11 11 11 11 11 10 9 6 4 3 4 4 5 4 4 0
-2 -3 -2 1 1 1 1 3 5 4 4 5 7 9 10 11 11 11 11 10 11 12 11 11 11 12 11 11 10 11 10 9 10 9 8 5 4 4 4 4 4 4 2
-2 -1 -1 -1 -0 0 0 1 1 1 2 2 3 3 5 8 9 10 10 11 10 9 10 11 11 11 11 11 10 11 9 9 8 7 7 6 5 4 4 4 5 4 3
-2 -3 -4 -4 -3 -3 -2 -1 -1 -0 0 1 2 2 2 2 3 7 9 9 9 9 10 10 9 9 10 10 10 11 11 11 8 7 6 6 5 3 3 3 4 3 3
-2 -3 -3 -3 -3 -3 -3 -2 -2 -2 -2 -2 -1 -0 0 1 2 5 8 8 9 9 8 8 9 9 10 10 11 10 10 11 10 9 8 8 7 6 5 4 3 3 3
1 -0 -1 -1 -2 -2 -2 -2 -2 -2 -2 -2 -2 -3 -4 -4 -2 1 4 8 7 8 7 9 9 9 9 9 9 9 10 10 9 9 8 8 8 6 6 6 5 4 2
Wind_Speed
16 18 21 20 18 17 15 13 12 10 8 4 3 3 2 3 3 5 10 14 14 13 8 7 7 7 9 10 9 8 7 6 7 9 12 12 11 11 11 13 16 15 10
21 21 23 21 19 17 15 15 13 12 12 9 5 6 5 5 6 9 16 17 15 12 11 10 8 7 10 10 9 8 8 8 8 10 13 13 13 12 12 10 10 10 9
19 23 23 21 20 18 17 16 14 13 10 9 7 7 7 8 12 14 17 16 13 10 9 9 9 9 13 12 11 11 9 9 11 12 14 13 11 10 10 11 9 7 6
19 24 24 21 20 19 18 17 15 14 9 9 9 9 10 15 11 14 15 13 13 8 7 9 10 13 15 14 14 12 11 11 12 10 11 10 9 8 7 9 10 8 5
21 24 23 22 20 19 17 15 14 12 9 9 9 11 15 14 13 14 14 13 11 7 6 8 11 14 15 16 15 13 10 9 7 6 6 6 10 9 8 7 9 11 12
22 23 22 21 19 18 17 14 13 9 7 10 11 13 14 14 14 14 13 10 8 7 6 7 11 13 13 14 15 13 10 8 8 8 6 6 6 9 10 10 9 7 12
22 22 21 20 18 18 16 14 11 8 11 12 13 13 12 10 11 11 10 9 8 7 6 8 9 10 11 12 12 11 8 9 6 5 3 3 3 5 7 6 3 3 4
18 19 19 19 18 17 17 14 10 11 11 10 12 14 13 12 11 10 9 9 8 7 7 8 9 9 9 9 9 9 7 6 4 3 3 4 3 3 2 1 2 5 8
14 14 15 18 16 16 14 13 12 9 7 7 9 9 11 13 14 12 11 10 8 7 8 8 8 8 8 9 9 8 5 3 2 2 1 2 1 0 1 4 6 6 6
12 10 12 17 19 16 15 14 14 12 7 5 5 5 6 8 11 13 13 12 10 9 9 7 7 7 8 8 8 7 6 4 3 1 2 2 3 3 5 6 6 6 4
14 8 9 18 20 19 17 16 14 11 8 7 6 7 7 6 7 8 9 9 9 9 9 8 7 7 7 8 8 8 7 6 4 3 4 4 5 8 8 8 7 6 4
15 11 7 14 16 15 16 17 15 13 11 9 8 7 8 8 8 8 8 8 9 9 8 8 7 7 8 8 9 9 8 9 7 6 5 6 8 9 10 9 8 6 4
13 13 9 8 11 11 13 15 15 14 13 13 11 9 9 10 11 11 10 9 9 9 10 11 11 9 10 10 10 10 10 11 10 8 8 9 9 10 10 10 10 7 4
17 16 14 12 11 9 9 12 11 12 14 14 12 11 12 12 13 12 10 9 10 11 12 13 13 12 12 12 12 12 11 12 13 12 12 11 11 12 11 12 11 9 7
19 17 16 16 15 12 10 10 11 10 13 11 12 11 10 11 12 12 11 11 10 11 12 14 15 15 16 16 15 15 14 14 16 16 15 15 14 14 13 13 13 11 9
24 22 19 16 16 15 14 12 12 12 12 11 10 11 11 11 12 13 13 12 13 14 13 12 13 15 16 16 16 17 17 16 17 19 19 17 17 16 16 16 15 13 12
13 17 25 21 19 20 19 17 17 15 15 15 12 11 12 14 15 15 15 17 17 17 17 17 16 17 18 19 20 19 19 21 21 21 22 21 19 19 18 18 17 16 14
11 12 12 21 26 25 24 23 22 21 19 19 17 16 15 16 17 18 19 21 22 23 22 22 21 22 22 23 24 22 23 24 24 23 24 24 24 22 22 20 19 19 17
14 12 14 17 19 22 22 22 25 26 25 24 21 21 21 20 19 20 21 22 24 26 26 26 27 26 26 28 28 27 28 26 26 25 27 28 27 27 24 23 22 21 20
19 18 16 14 16 18 17 17 20 21 24 28 29 27 27 26 25 25 26 25 24 26 28 29 30 29 30 31 32 33 32 30 29 30 30 30 31 31 29 27 25 23 24
21 22 22 19 19 19 18 20 21 21 20 25 26 26 30 31 30 31 29 28 28 30 29 30 32 33 34 33 35 35 36 35 34 35 34 34 34 34 34 32 29 27 25
20 21 21 20 19 18 19 22 24 25 25 26 26 27 28 28 28 30 32 30 31 32 33 33 34 35 36 36 37 37 33 36 41 39 39 39 37 37 37 36 35 31 27
14 15 18 21 22 22 21 21 21 22 23 24 26 29 29 27 29 28 28 29 30 33 34 34 35 36 38 38 38 34 16 22 28 31 32 36 39 40 40 40 38 36 31
13 14 17 20 23 26 28 28 29 29 30 29 29 30 31 32 31 28 26 25 27 27 29 31 33 36 37 41 39 40 42 44 26 24 25 27 31 39 41 41 40 39 35
10 11 12 12 13 15 18 24 26 27 29 32 33 34 34 33 30 26 27 26 25 25 25 26 28 30 33 35 36 37 38 43 48 46 38 32 36 32 33 40 41 40 38
9 8 8 9 10 12 13 14 15 16 16 16 17 18 19 22 26 28 30 25 24 23 24 24 23 24 24 27 31 33 34 34 37 46 49 47 48 42 38 36 40 40 40
Wind_Direction
161 164 157 158 156 151 148 143 136 128 119 111 158 194 150 90 66 87 112 122 114 112 107 100 104 110 133 129 122 107 100 92 75 74 70 65 69 68 78 104 101 98 89
155 162 160 157 156 151 144 141 136 126 127 148 120 153 129 103 105 107 126 118 120 110 90 79 86 110 136 132 125 119 112 93 81 84 80 72 71 72 78 102 119 121 124
166 162 161 160 156 151 151 144 136 133 150 152 175 142 125 118 115 117 130 126 127 115 89 61 68 93 128 131 123 120 112 97 90 86 84 74 69 65 71 81 87 87 91
178 164 164 161 159 158 154 150 147 156 149 113 115 126 123 120 120 129 135 131 142 119 91 62 83 101 117 126 130 125 114 103 99 87 76 65 69 69 80 80 79 57 59
175 167 162 166 164 160 156 159 158 150 129 124 129 128 135 129 127 140 143 144 150 138 99 74 99 107 115 125 130 124 118 108 92 90 71 94 84 84 87 85 99 84 77
175 172 162 167 170 166 167 171 164 175 159 143 134 134 144 138 137 135 145 145 149 137 109 96 110 112 116 125 132 135 133 119 98 88 94 91 115 105 102 106 119 118 92
173 178 172 175 174 170 173 179 189 202 176 149 142 140 144 147 145 146 144 144 138 133 115 115 117 116 118 126 133 139 141 132 120 95 65 61 145 163 176 168 177 192 180
177 176 180 175 171 173 177 182 187 184 175 153 152 151 149 152 157 156 153 152 149 140 134 132 130 128 129 134 143 145 154 143 119 70 46 41 100 123 108 84 268 278 261
167 168 173 174 172 176 185 186 178 188 172 163 154 155 159 160 164 167 166 164 158 151 149 145 139 138 140 147 156 161 166 167 128 83 20 4 177 63 35 335 325 315 280
167 177 191 187 182 187 189 189 185 190 191 167 171 169 166 169 174 173 170 171 171 168 165 159 154 152 152 157 169 180 186 205 239 242 271 314 272 313 345 335 333 334 322
172 182 195 197 193 189 191 191 199 207 206 196 191 196 191 186 184 186 185 186 186 185 183 181 178 177 176 177 183 195 207 228 243 238 269 297 291 299 313 323 327 323 314
180 177 184 199 205 192 191 202 206 218 229 232 228 221 205 200 203 205 207 204 202 205 211 212 209 206 203 201 200 206 222 240 244 261 275 286 293 298 304 304 314 313 300
185 187 179 183 192 198 200 207 216 224 231 235 230 222 219 215 213 212 214 224 230 235 233 227 227 226 223 220 219 218 230 250 257 261 270 278 289 297 294 297 304 299 281
202 198 195 189 201 195 202 211 212 227 235 237 234 226 227 223 226 226 221 228 249 254 251 251 249 244 239 234 234 231 236 253 264 266 269 272 284 288 291 289 295 291 280
211 212 216 208 210 219 223 222 227 234 233 236 227 224 230 232 235 236 238 246 261 267 262 256 255 254 254 250 247 251 252 256 266 267 268 273 279 284 289 287 288 284 275
210 212 223 225 222 229 239 247 245 239 235 231 229 231 236 242 251 256 253 258 267 273 271 270 265 262 263 259 258 258 262 254 260 265 266 267 273 278 283 285 283 281 271
205 214 216 230 237 238 241 246 249 245 238 241 243 248 248 250 257 263 266 269 274 273 271 271 269 267 267 263 261 268 272 264 259 262 264 266 267 272 275 280 279 276 272
231 221 212 224 233 240 249 255 258 254 251 247 250 249 255 255 257 263 269 273 277 275 273 271 271 271 274 273 272 273 273 267 265 263 264 266 268 269 273 273 272 272 268
236 231 232 229 226 229 239 247 251 251 251 251 250 251 255 258 259 257 262 268 270 269 269 270 271 270 274 278 275 274 274 272 269 267 265 264 265 267 267 269 270 267 266
226 227 226 220 229 232 236 240 241 242 245 246 246 245 249 257 257 256 262 262 263 264 267 266 266 267 269 274 273 271 273 273 269 267 265 264 264 265 266 264 265 263 262
225 231 230 222 226 228 233 239 244 245 250 249 250 253 252 258 259 257 261 265 270 266 269 270 269 268 265 264 264 262 263 265 267 269 265 261 261 262 263 263 262 261 258
219 225 225 228 234 237 237 235 238 244 249 253 253 252 254 255 257 259 262 265 267 267 267 271 270 266 268 267 262 262 255 260 263 267 266 260 261 261 261 261 262 260 257
222 225 228 231 237 243 241 239 240 244 249 250 250 258 260 260 259 262 263 266 269 267 268 269 272 270 270 272 270 255 250 251 267 272 269 264 262 258 258 258 259 260 259
244 252 254 253 252 248 248 250 254 257 259 261 264 265 265 266 264 261 260 265 268 270 271 272 273 272 269 269 270 269 263 262 266 277 270 270 262 256 255 257 257 258 259
245 241 241 242 244 245 248 254 258 261 263 263 264 266 267 266 264 264 261 259 265 268 269 275 277 279 274 270 271 274 273 261 261 258 267 267 268 266 263 256 256 258 258
221 230 239 244 247 250 253 255 258 259 262 264 266 267 266 267 264 263 260 259 260 267 276 274 276 281 285 278 280 280 277 269 267 266 258 270 267 271 273 265 257 255 253
Height
1536 1540 1543 1545 1548 1549 1550 1552 1553 1554 1555 1555 1556 1555 1556 1556 1556 1556 1556 1557 1557 1558 1558 1558 1558 1558 1559 1560 1560 1561 1560 1560 1560 1560 1559 1558 1558 1557 1556 1556 1556 1556 1557
1535 1539 1543 1546 1548 1550 1551 1553 1554 1554 1555 1556 1556 1556 1556 1556 1557 1557 1557 1558 1559 1560 1560 1560 1559 1558 1559 1560 1561 1561 1561 1562 1562 1561 1560 1560 1559 1558 1558 1557 1557 1557 1558
1536 1539 1543 1546 1549 1550 1552 1553 1554 1555 1555 1556 1555 1556 1557 1557 1558 1558 1559 1560 1561 1561 1561 1560 1559 1559 1560 1561 1562 1562 1562 1562 1563 1563 1562 1562 1561 1561 1560 1560 1560 1559 1558
1537 1540 1543 1547 1549 1551 1553 1554 1554 1554 1555 1555 1556 1557 1557 1558 1559 1560 1561 1562 1562 1562 1562 1562 1561 1561 1561 1562 1562 1563 1563 1563 1563 1564 1564 1563 1564 1563 1562 1562 1562 1560 1559
1538 1541 1544 1547 1550 1551 1553 1554 1554 1554 1555 1556 1556 1557 1558 1559 1560 1561 1562 1563 1563 1563 1564 1564 1563 1563 1563 1564 1564 1564 1564 1564 1564 1564 1565 1565 1565 1564 1564 1564 1564 1562 1560
1539 1542 1545 1548 1550 1552 1553 1554 1555 1555 1555 1556 1557 1557 1558 1559 1560 1561 1562 1563 1564 1564 1565 1565 1565 1565 1565 1566 1566 1566 1566 1565 1566 1566 1566 1566 1566 1566 1565 1565 1564 1564 1563
1539 1543 1546 1548 1551 1552 1554 1554 1556 1556 1557 1556 1557 1558 1559 1560 1561 1562 1563 1564 1565 1565 1566 1566 1567 1567 1567 1567 1568 1567 1567 1567 1567 1567 1567 1566 1566 1565 1565 1565 1564 1563 1563
1540 1543 1546 1548 1551 1553 1554 1554 1556 1556 1557 1557 1557 1557 1559 1560 1562 1563 1564 1564 1565 1566 1566 1567 1567 1568 1568 1568 1568 1568 1567 1567 1567 1567 1567 1566 1566 1565 1565 1565 1564 1563 1561
1542 1544 1546 1549 1551 1553 1553 1554 1556 1556 1558 1558 1558 1559 1559 1560 1561 1563 1564 1565 1566 1566 1567 1567 1568 1568 1568 1569 1568 1568 1567 1567 1567 1567 1567 1566 1565 1564 1564 1564 1564 1563 1560
1542 1545 1546 1548 1550 1552 1553 1555 1556 1556 1557 1559 1560 1561 1561 1562 1562 1563 1563 1564 1565 1566 1567 1567 1568 1568 1568 1568 1568 1568 1567 1567 1567 1566 1566 1566 1566 1564 1564 1563 1562 1561 1560
1542 1544 1546 1547 1548 1550 1552 1554 1555 1556 1557 1558 1559 1560 1562 1563 1564 1564 1565 1565 1566 1567 1567 1567 1568 1568 1569 1569 1568 1568 1567 1567 1567 1566 1567 1566 1565 1565 1563 1562 1561 1561 1559
1541 1544 1545 1546 1548 1549 1551 1553 1555 1556 1556 1557 1559 1560 1561 1562 1564 1565 1565 1566 1566 1567 1568 1568 1568 1568 1568 1569 1569 1568 1568 1567 1567 1566 1565 1565 1565 1565 1564 1562 1561 1560 1559
1542 1543 1544 1546 1547 1549 1550 1552 1553 1554 1555 1556 1558 1559 1561 1561 1562 1563 1564 1565 1566 1567 1567 1567 1567 1568 1568 1568 1568 1568 1568 1567 1566 1566 1565 1564 1563 1563 1563 1562 1561 1559 1559
1540 1542 1543 1545 1547 1549 1550 1551 1553 1553 1554 1555 1557 1558 1559 1560 1561 1562 1563 1564 1565 1566 1567 1567 1567 1567 1567 1567 1567 1567 1567 1566 1565 1565 1565 1564 1563 1562 1561 1561 1560 1559 1558
1539 1540 1541 1543 1544 1547 1548 1550 1551 1552 1553 1554 1555 1556 1557 1558 1559 1561 1562 1562 1563 1563 1564 1565 1565 1565 1565 1565 1566 1566 1566 1565 1564 1564 1563 1563 1562 1562 1561 1559 1559 1558 1557
1538 1539 1540 1541 1543 1544 1545 1547 1549 1550 1552 1553 1554 1555 1556 1556 1557 1558 1559 1560 1560 1561 1562 1562 1562 1563 1563 1562 1563 1563 1563 1563 1562 1562 1562 1561 1560 1560 1559 1558 1558 1557 1556
1536 1538 1540 1540 1542 1542 1544 1546 1547 1548 1549 1550 1552 1553 1554 1554 1554 1555 1555 1555 1557 1559 1559 1559 1559 1560 1559 1560 1560 1560 1560 1559 1559 1558 1558 1557 1557 1557 1556 1557 1555 1555 1554
1534 1536 1538 1540 1540 1541 1542 1544 1545 1546 1547 1547 1548 1550 1551 1552 1552 1552 1552 1552 1553 1555 1556 1556 1556 1556 1555 1555 1554 1555 1556 1556 1555 1555 1555 1555 1554 1554 1554 1553 1553 1552 1552
1532 1532 1534 1536 1538 1539 1541 1542 1543 1544 1544 1545 1546 1546 1547 1549 1549 1550 1549 1550 1551 1552 1552 1552 1552 1551 1550 1551 1550 1551 1551 1552 1551 1551 1550 1550 1549 1549 1549 1550 1550 1550 1549
1528 1530 1530 1532 1534 1536 1538 1539 1540 1540 1540 1542 1543 1544 1545 1545 1545 1546 1546 1547 1548 1547 1548 1548 1547 1548 1547 1547 1548 1548 1547 1546 1546 1545 1544 1545 1545 1545 1544 1545 1546 1546 1546
1525 1526 1527 1528 1529 1531 1532 1534 1535 1535 1537 1538 1539 1541 1541 1541 1542 1542 1542 1542 1542 1542 1543 1543 1543 1544 1543 1543 1543 1542 1541 1541 1540 1539 1539 1539 1539 1539 1539 1539 1540 1541 1542
1521 1523 1524 1524 1526 1527 1528 1528 1529 1530 1531 1532 1533 1535 1535 1536 1536 1537 1537 1538 1538 1537 1538 1538 1537 1537 1537 1538 1537 1536 1535 1534 1532 1532 1531 1531 1531 1532 1533 1534 1534 1536 1537
1518 1520 1520 1521 1522 1523 1523 1523 1524 1525 1525 1526 1527 1528 1528 1529 1529 1530 1531 1531 1531 1530 1530 1531 1531 1531 1530 1530 1531 1534 1531 1526 1526 1524 1523 1523 1522 1523 1525 1526 1527 1529 1531
1515 1516 1516 1516 1516 1517 1517 1518 1518 1519 1519 1520 1520 1520 1521 1521 1521 1522 1522 1523 1524 1524 1523 1524 1525 1524 1525 1523 1525 1525 1524 1523 1522 1519 1519 1518 1517 1516 1517 1519 1520 1522 1525
1511 1511 1511 1511 1511 1511 1512 1512 1512 1513 1513 1513 1513 1513 1513 1513 1514 1514 1515 1516 1516 1517 1518 1517 1518 1517 1516 1517 1516 1517 1516 1516 1515 1515 1512 1512 1514 1512 1510 1512 1514 1515 1517
1508 1508 1508 1508 1508 1509 1509 1508 1508 1508 1508 1508 1507 1507 1506 1506 1506 1506 1507 1508 1509 1510 1511 1511 1511 1510 1509 1510 1510 1511 1510 1509 1508 1508 1506 1505 1506 1508 1509 1507 1506 1506 1507